RYR18CJ LFMP-GMMX

Flight info

Callsign RYR18CJ
Flight time 2h 22m
Altitude 37000
Route BGR N975 BCN M985 VLC N860 BERUM UG850 OBOGA
Aircraft B738/M-SDE2E3FGHIRWXY/LB1

Departure

Time 2026-04-18 08:47
Airport Perpignan-Rivesaltes (Llabanère) Airport (LFMP)

Arrival

Time 2026-04-18 11:10
Airport Marrakesh Menara Airport (GMMX)
Time Latitude Longitude Altitude Speed Heading
2026-04-18 08:21 42.74038 2.87019 149 ft 0 kts 349°
2026-04-18 08:41 42.74041 2.87023 149 ft 2 kts 36°
2026-04-18 08:41 42.74033 2.87050 149 ft 4 kts 118°
2026-04-18 08:42 42.74018 2.87086 149 ft 5 kts 118°
2026-04-18 08:42 42.73969 2.87147 149 ft 16 kts 151°
2026-04-18 08:42 42.73869 2.87224 149 ft 17 kts 150°
2026-04-18 08:42 42.73773 2.87301 149 ft 15 kts 147°
2026-04-18 08:43 42.73689 2.87375 149 ft 14 kts 147°
2026-04-18 08:43 42.73632 2.87424 149 ft 7 kts 147°
2026-04-18 08:43 42.73626 2.87429 149 ft 0 kts 147°
2026-04-18 08:43 42.73622 2.87433 149 ft 4 kts 147°
2026-04-18 08:44 42.73604 2.87509 149 ft 1 kts 63°
2026-04-18 08:44 42.73604 2.87510 149 ft 0 kts 63°
2026-04-18 08:44 42.73615 2.87535 149 ft 8 kts 58°
2026-04-18 08:44 42.73639 2.87604 150 ft 8 kts 81°
2026-04-18 08:45 42.73603 2.87687 152 ft 14 kts 148°
2026-04-18 08:45 42.73531 2.87703 151 ft 5 kts 179°
2026-04-18 08:45 42.73509 2.87712 151 ft 2 kts 129°
2026-04-18 08:45 42.73508 2.87725 151 ft 1 kts 84°
2026-04-18 08:46 42.73521 2.87745 151 ft 4 kts 30°
2026-04-18 08:46 42.73546 2.87736 152 ft 2 kts 329°
2026-04-18 08:46 42.73547 2.87735 152 ft 0 kts 328°
2026-04-18 08:46 42.73589 2.87699 152 ft 35 kts 328°
2026-04-18 08:47 42.74025 2.87334 149 ft 107 kts 328°
2026-04-18 08:47 42.74815 2.86671 152 ft 158 kts 328°
2026-04-18 08:47 42.75803 2.85848 643 ft 165 kts 330°
2026-04-18 08:47 42.76921 2.85416 1227 ft 180 kts
2026-04-18 08:48 42.78157 2.86085 1554 ft 205 kts 40°
2026-04-18 08:48 42.79101 2.87582 2080 ft 219 kts 58°
2026-04-18 08:48 42.79564 2.89644 2425 ft 236 kts 88°
2026-04-18 08:48 42.79211 2.91861 2895 ft 254 kts 116°
2026-04-18 08:49 42.77969 2.93663 3383 ft 270 kts 149°
2026-04-18 08:49 42.76313 2.94911 4221 ft 272 kts 149°
2026-04-18 08:49 42.74686 2.96248 5028 ft 276 kts 147°
2026-04-18 08:49 42.73057 2.97604 5760 ft 281 kts 147°
2026-04-18 08:50 42.71366 2.99002 6432 ft 287 kts 148°
2026-04-18 08:50 42.69637 3.00416 7153 ft 292 kts 148°
2026-04-18 08:50 42.67988 3.02021 7891 ft 293 kts 130°
2026-04-18 08:50 42.66811 3.04154 8591 ft 295 kts 122°
2026-04-18 08:51 42.66402 3.04960 8830 ft 297 kts 122°
2026-04-18 08:51 42.65224 3.07293 9560 ft 300 kts 122°
2026-04-18 08:51 42.64043 3.09632 10299 ft 301 kts 122°
2026-04-18 08:51 42.62810 3.12021 10663 ft 320 kts 127°
2026-04-18 08:52 42.61001 3.13938 10817 ft 346 kts 156°
2026-04-18 08:52 42.58584 3.14610 11085 ft 364 kts 176°
2026-04-18 08:52 42.56839 3.14745 11432 ft 369 kts 176°
2026-04-18 08:52 42.54262 3.14919 12045 ft 373 kts 176°
2026-04-18 08:53 42.51658 3.15108 12719 ft 376 kts 176°
2026-04-18 08:53 42.50366 3.15211 13064 ft 377 kts 176°
2026-04-18 08:53 42.47766 3.15437 13703 ft 381 kts 176°
2026-04-18 08:53 42.47385 3.15472 13795 ft 382 kts 176°
2026-04-18 08:54 42.44715 3.15728 14482 ft 386 kts 175°
2026-04-18 08:54 42.43275 3.15871 14846 ft 388 kts 175°
2026-04-18 08:54 42.40756 3.16127 15444 ft 393 kts 175°
2026-04-18 08:54 42.39040 3.16304 15795 ft 396 kts 175°
2026-04-18 08:55 42.36282 3.16593 16489 ft 398 kts 175°
2026-04-18 08:55 42.33509 3.16883 17149 ft 402 kts 176°
2026-04-18 08:55 42.30705 3.17175 17722 ft 406 kts 176°
2026-04-18 08:55 42.27874 3.17470 18318 ft 410 kts 176°
2026-04-18 08:56 42.25089 3.17759 18907 ft 413 kts 176°
2026-04-18 08:56 42.22208 3.18060 19516 ft 415 kts 176°
2026-04-18 08:56 42.19360 3.18357 20096 ft 418 kts 176°
2026-04-18 08:56 42.16444 3.18660 20636 ft 421 kts 176°
2026-04-18 08:57 42.10555 3.19270 21663 ft 428 kts 176°
2026-04-18 08:57 42.07578 3.19579 22163 ft 431 kts 176°
2026-04-18 08:57 42.04580 3.19889 22698 ft 433 kts 176°
2026-04-18 08:58 42.03081 3.20044 22950 ft 434 kts 176°
2026-04-18 08:58 42.00054 3.20355 23417 ft 436 kts 177°
2026-04-18 08:58 41.97031 3.20106 23786 ft 438 kts 196°
2026-04-18 08:58 41.94235 3.18525 24249 ft 435 kts 213°
2026-04-18 08:59 41.91889 3.16003 24680 ft 432 kts 230°
2026-04-18 08:59 41.90031 3.12900 25158 ft 431 kts 235°
2026-04-18 08:59 41.88221 3.09678 25595 ft 433 kts 236°
2026-04-18 08:59 41.86413 3.06431 26009 ft 435 kts 236°
2026-04-18 09:00 41.84593 3.03186 26419 ft 436 kts 235°
2026-04-18 09:00 41.82752 2.99938 26831 ft 437 kts 235°
2026-04-18 09:00 41.80895 2.96696 27213 ft 439 kts 234°
2026-04-18 09:00 41.79026 2.93451 27594 ft 440 kts 234°
2026-04-18 09:01 41.77147 2.90200 27945 ft 442 kts 234°
2026-04-18 09:01 41.75262 2.86941 28302 ft 443 kts 234°
2026-04-18 09:01 41.73369 2.83671 28654 ft 445 kts 234°
2026-04-18 09:01 41.71470 2.80393 28988 ft 446 kts 234°
2026-04-18 09:02 41.69563 2.77106 29331 ft 447 kts 234°
2026-04-18 09:02 41.67655 2.73820 29654 ft 447 kts 234°
2026-04-18 09:02 41.65765 2.70570 29934 ft 449 kts 234°
2026-04-18 09:02 41.63846 2.67272 30285 ft 448 kts 234°
2026-04-18 09:03 41.61932 2.63985 30708 ft 446 kts 234°
2026-04-18 09:03 41.60032 2.60724 31111 ft 444 kts 234°
2026-04-18 09:03 41.58131 2.57465 31447 ft 444 kts 234°
2026-04-18 09:03 41.56232 2.54213 31793 ft 443 kts 234°
2026-04-18 09:04 41.54340 2.50975 32138 ft 442 kts 234°
2026-04-18 09:04 41.52453 2.47749 32473 ft 441 kts 234°
2026-04-18 09:04 41.50569 2.44532 32809 ft 439 kts 234°
2026-04-18 09:04 41.48687 2.41321 33128 ft 438 kts 234°
2026-04-18 09:05 41.46807 2.38119 33429 ft 437 kts 234°
2026-04-18 09:05 41.44932 2.34927 33693 ft 437 kts 234°
2026-04-18 09:05 41.43058 2.31740 33972 ft 436 kts 234°
2026-04-18 09:05 41.41208 2.28597 34280 ft 435 kts 234°
2026-04-18 09:06 41.39338 2.25424 34555 ft 434 kts 234°
2026-04-18 09:06 41.37468 2.22253 34775 ft 434 kts 234°
2026-04-18 09:06 41.35602 2.19091 35008 ft 434 kts 234°
2026-04-18 09:06 41.33735 2.15931 35271 ft 433 kts 234°
2026-04-18 09:07 41.31872 2.12783 35518 ft 432 kts 234°
2026-04-18 09:07 41.29987 2.09662 35736 ft 433 kts 232°
2026-04-18 09:07 41.28005 2.06631 35942 ft 434 kts 231°
2026-04-18 09:07 41.26006 2.03696 36160 ft 434 kts 230°
2026-04-18 09:08 41.23972 2.00742 36375 ft 433 kts 230°
2026-04-18 09:08 41.21935 1.97774 36539 ft 434 kts 230°
2026-04-18 09:08 41.19922 1.94829 36934 ft 428 kts 230°
2026-04-18 09:08 41.17931 1.91900 37164 ft 427 kts 230°
2026-04-18 09:09 41.13949 1.86024 37180 ft 428 kts 231°
2026-04-18 09:09 41.09996 1.80200 37178 ft 421 kts 231°
2026-04-18 09:10 41.06085 1.74449 37190 ft 419 kts 230°
2026-04-18 09:10 41.02183 1.68725 37186 ft 417 kts 231°
2026-04-18 09:11 40.98318 1.63057 37188 ft 417 kts 231°
2026-04-18 09:11 40.94428 1.57361 37190 ft 417 kts 231°
2026-04-18 09:12 40.90525 1.51657 37192 ft 418 kts 230°
2026-04-18 09:12 40.86608 1.45943 37189 ft 419 kts 230°
2026-04-18 09:13 40.82676 1.40232 37192 ft 421 kts 230°
2026-04-18 09:13 40.78745 1.34541 37195 ft 422 kts 230°
2026-04-18 09:14 40.74776 1.28800 37185 ft 424 kts 230°
2026-04-18 09:14 40.70793 1.23048 37183 ft 425 kts 230°
2026-04-18 09:15 40.67477 1.18264 37181 ft 425 kts 230°
2026-04-18 09:15 40.63489 1.12513 37189 ft 425 kts 230°
2026-04-18 09:16 40.59502 1.06771 37179 ft 425 kts 230°
2026-04-18 09:16 40.55518 1.01045 37179 ft 423 kts 230°
2026-04-18 09:17 40.51533 0.95345 37177 ft 423 kts 229°
2026-04-18 09:17 40.47556 0.89675 37180 ft 421 kts 229°
2026-04-18 09:18 40.43586 0.84021 37181 ft 421 kts 229°
2026-04-18 09:18 40.39612 0.78369 37188 ft 420 kts 229°
2026-04-18 09:19 40.35643 0.72734 37183 ft 420 kts 229°
2026-04-18 09:19 40.31678 0.67114 37180 ft 419 kts 229°
2026-04-18 09:20 40.27741 0.61545 37180 ft 419 kts 229°
2026-04-18 09:20 40.23775 0.55950 37184 ft 418 kts 229°
2026-04-18 09:21 40.19809 0.50369 37193 ft 418 kts 229°
2026-04-18 09:21 40.15841 0.44795 37195 ft 418 kts 229°
2026-04-18 09:22 40.12998 0.40807 37193 ft 418 kts 229°
2026-04-18 09:22 40.09073 0.35305 37179 ft 419 kts 229°
2026-04-18 09:23 40.05124 0.29778 37196 ft 419 kts 229°
2026-04-18 09:23 40.01147 0.24227 37195 ft 419 kts 229°
2026-04-18 09:24 39.97168 0.18674 37187 ft 419 kts 229°
2026-04-18 09:24 39.93196 0.13131 37196 ft 419 kts 229°
2026-04-18 09:25 39.89249 0.07632 37194 ft 418 kts 229°
2026-04-18 09:25 39.85263 0.02088 37193 ft 419 kts 229°
2026-04-18 09:26 39.81274 -0.03442 37187 ft 419 kts 228°
2026-04-18 09:26 39.77277 -0.08961 37196 ft 419 kts 228°
2026-04-18 09:27 39.73273 -0.14479 37193 ft 419 kts 228°
2026-04-18 09:27 39.69264 -0.19998 37181 ft 420 kts 228°
2026-04-18 09:28 39.65276 -0.25480 37181 ft 420 kts 228°
2026-04-18 09:28 39.61255 -0.30996 37185 ft 420 kts 228°
2026-04-18 09:29 39.57231 -0.36506 37181 ft 420 kts 228°
2026-04-18 09:29 39.53211 -0.42007 37190 ft 420 kts 228°
2026-04-18 09:30 39.49437 -0.47056 37183 ft 421 kts 223°
2026-04-18 09:30 39.45031 -0.50929 37197 ft 423 kts 210°
2026-04-18 09:31 39.39825 -0.54477 37180 ft 423 kts 210°
2026-04-18 09:31 39.34628 -0.58032 37185 ft 422 kts 210°
2026-04-18 09:32 39.29475 -0.61592 37193 ft 422 kts 210°
2026-04-18 09:32 39.24290 -0.65184 37185 ft 423 kts 210°
2026-04-18 09:33 39.19097 -0.68779 37200 ft 424 kts 210°
2026-04-18 09:33 39.13895 -0.72376 37196 ft 424 kts 210°
2026-04-18 09:34 39.08692 -0.75964 37194 ft 424 kts 210°
2026-04-18 09:34 39.03491 -0.79544 37186 ft 424 kts 210°
2026-04-18 09:35 38.98318 -0.83104 37195 ft 424 kts 210°
2026-04-18 09:35 38.93121 -0.86673 37196 ft 423 kts 210°
2026-04-18 09:36 38.87926 -0.90238 37197 ft 423 kts 210°
2026-04-18 09:36 38.82719 -0.93802 37197 ft 423 kts 210°
2026-04-18 09:37 38.77522 -0.97357 37195 ft 423 kts 210°
2026-04-18 09:37 38.72318 -1.00910 37194 ft 423 kts 210°
2026-04-18 09:38 38.67113 -1.04454 37195 ft 423 kts 210°
2026-04-18 09:38 38.61943 -1.07969 37196 ft 423 kts 210°
2026-04-18 09:39 38.56747 -1.11498 37197 ft 423 kts 210°
2026-04-18 09:39 38.51549 -1.15022 37196 ft 423 kts 210°
2026-04-18 09:40 38.46351 -1.18543 37196 ft 423 kts 210°
2026-04-18 09:40 38.41143 -1.22063 37194 ft 423 kts 210°
2026-04-18 09:41 38.35928 -1.25581 37202 ft 424 kts 210°
2026-04-18 09:41 38.30737 -1.29078 37193 ft 424 kts 210°
2026-04-18 09:42 38.25506 -1.32596 37180 ft 425 kts 210°
2026-04-18 09:42 38.20282 -1.36104 37180 ft 424 kts 210°
2026-04-18 09:43 38.15058 -1.39606 37180 ft 424 kts 210°
2026-04-18 09:43 38.09844 -1.43097 37183 ft 422 kts 210°
2026-04-18 09:44 38.04647 -1.46570 37185 ft 422 kts 210°
2026-04-18 09:44 37.99443 -1.50043 37178 ft 423 kts 210°
2026-04-18 09:45 37.94234 -1.53513 37184 ft 423 kts 210°
2026-04-18 09:45 37.89016 -1.56974 37194 ft 423 kts 210°
2026-04-18 09:46 37.83780 -1.60374 37197 ft 423 kts 209°
2026-04-18 09:46 37.78553 -1.63753 37192 ft 423 kts 209°
2026-04-18 09:47 37.73308 -1.67144 37193 ft 424 kts 209°
2026-04-18 09:47 37.68080 -1.70524 37189 ft 424 kts 209°
2026-04-18 09:48 37.62821 -1.73917 37179 ft 423 kts 209°
2026-04-18 09:48 37.57572 -1.77301 37191 ft 423 kts 209°
2026-04-18 09:49 37.52317 -1.80683 37173 ft 424 kts 209°
2026-04-18 09:49 37.47058 -1.84063 37173 ft 424 kts 209°
2026-04-18 09:50 37.41796 -1.87438 37173 ft 424 kts 209°
2026-04-18 09:50 37.36535 -1.90808 37173 ft 424 kts 209°
2026-04-18 09:51 37.31271 -1.94175 37170 ft 425 kts 209°
2026-04-18 09:51 37.26037 -1.97518 37173 ft 425 kts 209°
2026-04-18 09:52 37.20793 -2.00930 37169 ft 425 kts 210°
2026-04-18 09:52 37.15581 -2.04430 37171 ft 425 kts 210°
2026-04-18 09:53 37.10361 -2.07931 37163 ft 425 kts 210°
2026-04-18 09:53 37.05134 -2.11417 37164 ft 426 kts 210°
2026-04-18 09:54 36.99896 -2.14899 37161 ft 425 kts 210°
2026-04-18 09:54 36.94661 -2.18374 37162 ft 426 kts 210°
2026-04-18 09:55 36.89420 -2.21849 37157 ft 426 kts 210°
2026-04-18 09:55 36.84186 -2.25322 37157 ft 426 kts 211°
2026-04-18 09:56 36.79441 -2.29598 37160 ft 423 kts 221°
2026-04-18 09:56 36.74894 -2.34287 37163 ft 424 kts 221°
2026-04-18 09:57 36.70319 -2.38952 37157 ft 424 kts 220°
2026-04-18 09:57 36.65718 -2.43584 37156 ft 425 kts 220°
2026-04-18 09:58 36.61109 -2.48198 37163 ft 425 kts 220°
2026-04-18 09:58 36.56523 -2.52787 37160 ft 426 kts 220°
2026-04-18 09:59 36.51902 -2.57408 37159 ft 426 kts 220°
2026-04-18 10:00 36.44954 -2.64307 37164 ft 426 kts 219°
2026-04-18 10:00 36.41046 -2.68056 37170 ft 426 kts 219°
2026-04-18 10:01 36.35577 -2.73276 37170 ft 426 kts 219°
2026-04-18 10:01 36.31643 -2.77042 37162 ft 426 kts 219°
2026-04-18 10:02 36.26985 -2.81500 37170 ft 425 kts 219°
2026-04-18 10:02 36.22304 -2.85976 37178 ft 425 kts 219°
2026-04-18 10:03 36.17626 -2.90464 37178 ft 425 kts 220°
2026-04-18 10:03 36.12974 -2.94978 37177 ft 425 kts 220°
2026-04-18 10:04 36.08316 -2.99495 37176 ft 425 kts 220°
2026-04-18 10:04 36.03653 -3.04006 37167 ft 426 kts 220°
2026-04-18 10:05 35.98987 -3.08509 37163 ft 426 kts 220°
2026-04-18 10:05 35.94316 -3.13011 37163 ft 426 kts 220°
2026-04-18 10:06 35.89667 -3.17483 37167 ft 427 kts 220°
2026-04-18 10:06 35.84980 -3.21987 37162 ft 427 kts 220°
2026-04-18 10:07 35.80282 -3.26463 37169 ft 427 kts 219°
2026-04-18 10:07 35.75561 -3.30898 37159 ft 427 kts 219°
2026-04-18 10:08 35.70831 -3.35331 37168 ft 427 kts 219°
2026-04-18 10:08 35.66137 -3.39731 37164 ft 427 kts 219°
2026-04-18 10:09 35.61416 -3.44156 37159 ft 426 kts 219°
2026-04-18 10:09 35.56686 -3.48584 37155 ft 427 kts 219°
2026-04-18 10:10 35.51960 -3.52999 37156 ft 427 kts 219°
2026-04-18 10:10 35.47228 -3.57413 37158 ft 427 kts 219°
2026-04-18 10:11 35.42525 -3.61794 37157 ft 427 kts 219°
2026-04-18 10:11 35.37780 -3.66207 37157 ft 427 kts 219°
2026-04-18 10:12 35.33042 -3.70609 37158 ft 427 kts 219°
2026-04-18 10:12 35.28297 -3.75011 37157 ft 427 kts 219°
2026-04-18 10:13 35.23585 -3.79373 37156 ft 427 kts 219°
2026-04-18 10:13 35.18843 -3.83757 37156 ft 427 kts 219°
2026-04-18 10:14 35.14142 -3.88193 37153 ft 427 kts 220°
2026-04-18 10:14 35.09452 -3.92677 37157 ft 427 kts 220°
2026-04-18 10:15 35.04800 -3.97113 37159 ft 427 kts 220°
2026-04-18 10:15 35.00112 -4.01569 37160 ft 427 kts 220°
2026-04-18 10:16 34.95416 -4.06021 37151 ft 427 kts 220°
2026-04-18 10:16 34.90724 -4.10463 37162 ft 427 kts 220°
2026-04-18 10:17 34.86032 -4.14896 37155 ft 427 kts 220°
2026-04-18 10:17 34.81333 -4.19326 37151 ft 427 kts 220°
2026-04-18 10:18 34.76636 -4.23753 37151 ft 427 kts 221°
2026-04-18 10:18 34.71936 -4.28175 37166 ft 427 kts 221°
2026-04-18 10:19 34.67234 -4.32591 37170 ft 427 kts 221°
2026-04-18 10:19 34.62566 -4.36970 37159 ft 427 kts 220°
2026-04-18 10:20 34.57853 -4.41382 37164 ft 427 kts 221°
2026-04-18 10:20 34.53143 -4.45791 37158 ft 427 kts 221°
2026-04-18 10:21 34.48429 -4.50195 37158 ft 427 kts 220°
2026-04-18 10:21 34.43718 -4.54590 37154 ft 427 kts 220°
2026-04-18 10:22 34.39000 -4.58983 37157 ft 427 kts 220°
2026-04-18 10:22 34.34303 -4.63320 37159 ft 427 kts 220°
2026-04-18 10:23 34.29567 -4.67672 37153 ft 427 kts 220°
2026-04-18 10:23 34.24838 -4.72015 37160 ft 427 kts 220°
2026-04-18 10:24 34.20105 -4.76359 37156 ft 427 kts 220°
2026-04-18 10:24 34.15377 -4.80693 37154 ft 427 kts 220°
2026-04-18 10:25 34.10648 -4.85025 37160 ft 427 kts 220°
2026-04-18 10:25 34.05914 -4.89351 37158 ft 427 kts 220°
2026-04-18 10:26 34.01172 -4.93679 37161 ft 427 kts 220°
2026-04-18 10:26 33.96436 -4.97998 37159 ft 427 kts 220°
2026-04-18 10:27 33.91865 -5.02446 37144 ft 423 kts 230°
2026-04-18 10:27 33.88017 -5.07770 37156 ft 420 kts 232°
2026-04-18 10:28 33.84223 -5.13140 37154 ft 420 kts 232°
2026-04-18 10:28 33.80414 -5.18471 37151 ft 420 kts 232°
2026-04-18 10:29 33.76603 -5.23763 37149 ft 421 kts 232°
2026-04-18 10:29 33.72763 -5.29083 37144 ft 421 kts 232°
2026-04-18 10:30 33.68946 -5.34361 37141 ft 421 kts 232°
2026-04-18 10:30 33.65096 -5.39678 37137 ft 422 kts 232°
2026-04-18 10:31 33.61242 -5.44991 37139 ft 422 kts 232°
2026-04-18 10:31 33.57387 -5.50299 37138 ft 422 kts 232°
2026-04-18 10:32 33.53526 -5.55607 37138 ft 422 kts 232°
2026-04-18 10:32 33.49689 -5.60874 37128 ft 422 kts 232°
2026-04-18 10:33 33.45827 -5.66169 37127 ft 421 kts 232°
2026-04-18 10:33 33.41969 -5.71447 37131 ft 420 kts 232°
2026-04-18 10:34 33.38119 -5.76711 37126 ft 419 kts 232°
2026-04-18 10:34 33.34277 -5.81956 37127 ft 419 kts 232°
2026-04-18 10:35 33.30428 -5.87188 37126 ft 419 kts 231°
2026-04-18 10:35 33.26566 -5.92409 37130 ft 418 kts 231°
2026-04-18 10:36 33.23082 -5.97115 37128 ft 418 kts 231°
2026-04-18 10:36 33.19558 -6.01870 37131 ft 418 kts 231°
2026-04-18 10:37 33.15886 -6.06819 37134 ft 418 kts 231°
2026-04-18 10:37 33.12032 -6.12007 37129 ft 418 kts 231°
2026-04-18 10:38 33.08172 -6.17197 37129 ft 418 kts 231°
2026-04-18 10:38 33.04313 -6.22378 37123 ft 418 kts 231°
2026-04-18 10:39 33.00485 -6.27512 37124 ft 417 kts 231°
2026-04-18 10:39 32.96627 -6.32678 37130 ft 417 kts 231°
2026-04-18 10:40 32.92765 -6.37842 37130 ft 416 kts 231°
2026-04-18 10:40 32.88914 -6.42994 37129 ft 416 kts 231°
2026-04-18 10:41 32.85071 -6.48149 37131 ft 417 kts 231°
2026-04-18 10:41 32.81220 -6.53308 37118 ft 417 kts 231°
2026-04-18 10:42 32.77388 -6.58433 37120 ft 417 kts 231°
2026-04-18 10:42 32.73529 -6.63582 37119 ft 417 kts 231°
2026-04-18 10:43 32.69669 -6.68729 36818 ft 422 kts 231°
2026-04-18 10:43 32.67717 -6.71331 36354 ft 421 kts 231°
2026-04-18 10:43 32.65775 -6.73916 35867 ft 417 kts 231°
2026-04-18 10:43 32.63852 -6.76471 35456 ft 413 kts 231°
2026-04-18 10:44 32.61940 -6.79010 35023 ft 410 kts 231°
2026-04-18 10:44 32.60046 -6.81525 34596 ft 407 kts 231°
2026-04-18 10:44 32.58182 -6.84000 34178 ft 404 kts 231°
2026-04-18 10:44 32.56338 -6.86497 33690 ft 402 kts 234°
2026-04-18 10:45 32.54817 -6.89278 32965 ft 403 kts 243°
2026-04-18 10:45 32.53495 -6.92152 32395 ft 404 kts 243°
2026-04-18 10:45 32.52168 -6.95077 31948 ft 402 kts 243°
2026-04-18 10:45 32.50844 -6.97986 31533 ft 398 kts 243°
2026-04-18 10:46 32.49526 -7.00861 31113 ft 395 kts 243°
2026-04-18 10:46 32.48224 -7.03677 30662 ft 393 kts 242°
2026-04-18 10:46 32.46908 -7.06510 30209 ft 392 kts 242°
2026-04-18 10:46 32.45599 -7.09319 29784 ft 389 kts 242°
2026-04-18 10:47 32.44286 -7.12124 29338 ft 387 kts 242°
2026-04-18 10:47 32.42983 -7.14904 28860 ft 385 kts 242°
2026-04-18 10:47 32.41683 -7.17674 28389 ft 384 kts 242°
2026-04-18 10:47 32.40387 -7.20432 27937 ft 382 kts 242°
2026-04-18 10:48 32.39535 -7.22244 27647 ft 380 kts 242°
2026-04-18 10:48 32.38249 -7.24980 27225 ft 378 kts 242°
2026-04-18 10:48 32.36977 -7.27682 26778 ft 376 kts 242°
2026-04-18 10:48 32.35706 -7.30380 26313 ft 374 kts 242°
2026-04-18 10:49 32.34440 -7.33066 25882 ft 373 kts 242°
2026-04-18 10:49 32.33181 -7.35735 25456 ft 371 kts 242°
2026-04-18 10:49 32.31926 -7.38394 25030 ft 369 kts 242°
2026-04-18 10:49 32.30678 -7.41034 24600 ft 366 kts 242°
2026-04-18 10:50 32.29435 -7.43666 24091 ft 367 kts 242°
2026-04-18 10:50 32.28192 -7.46294 23675 ft 365 kts 242°
2026-04-18 10:50 32.26960 -7.48898 23257 ft 363 kts 242°
2026-04-18 10:50 32.25748 -7.51457 22864 ft 360 kts 242°
2026-04-18 10:51 32.24525 -7.54034 22462 ft 359 kts 241°
2026-04-18 10:51 32.23309 -7.56597 22070 ft 356 kts 241°
2026-04-18 10:51 32.22100 -7.59143 21669 ft 354 kts 241°
2026-04-18 10:51 32.20900 -7.61671 21281 ft 352 kts 241°
2026-04-18 10:52 32.19705 -7.64187 20887 ft 350 kts 241°
2026-04-18 10:52 32.18515 -7.66690 20499 ft 348 kts 241°
2026-04-18 10:52 32.17333 -7.69175 20110 ft 346 kts 241°
2026-04-18 10:52 32.16157 -7.71644 19724 ft 344 kts 241°
2026-04-18 10:53 32.14987 -7.74099 19343 ft 342 kts 241°
2026-04-18 10:53 32.13822 -7.76541 18964 ft 341 kts 241°
2026-04-18 10:53 32.12661 -7.78974 18580 ft 339 kts 240°
2026-04-18 10:53 32.11508 -7.81387 18207 ft 337 kts 240°
2026-04-18 10:54 32.10359 -7.83790 17829 ft 335 kts 240°
2026-04-18 10:54 32.09218 -7.86177 17456 ft 334 kts 240°
2026-04-18 10:54 32.08090 -7.88532 17090 ft 332 kts 240°
2026-04-18 10:54 32.06961 -7.90893 16715 ft 330 kts 240°
2026-04-18 10:55 32.05836 -7.93243 16347 ft 328 kts 240°
2026-04-18 10:55 32.04711 -7.95590 15974 ft 326 kts 240°
2026-04-18 10:55 32.03596 -7.97916 15615 ft 324 kts 240°
2026-04-18 10:55 32.02490 -8.00221 15247 ft 322 kts 240°
2026-04-18 10:56 32.01390 -8.02511 14882 ft 320 kts 240°
2026-04-18 10:56 32.00295 -8.04789 14529 ft 318 kts 240°
2026-04-18 10:56 31.99207 -8.07054 14166 ft 317 kts 240°
2026-04-18 10:56 31.98123 -8.09306 13805 ft 314 kts 240°
2026-04-18 10:57 31.97048 -8.11539 13447 ft 312 kts 240°
2026-04-18 10:57 31.95981 -8.13756 13103 ft 310 kts 240°
2026-04-18 10:57 31.94921 -8.15953 12759 ft 307 kts 240°
2026-04-18 10:57 31.93871 -8.18130 12420 ft 305 kts 240°
2026-04-18 10:58 31.92843 -8.20262 12082 ft 303 kts 240°
2026-04-18 10:58 31.91804 -8.22414 11736 ft 301 kts 240°
2026-04-18 10:58 31.90774 -8.24548 11394 ft 299 kts 240°
2026-04-18 10:58 31.89750 -8.26667 11051 ft 297 kts 240°
2026-04-18 10:59 31.88732 -8.28775 10714 ft 295 kts 240°
2026-04-18 10:59 31.87720 -8.30868 10410 ft 292 kts 240°
2026-04-18 10:59 31.86729 -8.32913 10294 ft 284 kts 240°
2026-04-18 10:59 31.85765 -8.34905 10163 ft 276 kts 240°
2026-04-18 11:00 31.84824 -8.36845 9949 ft 272 kts 240°
2026-04-18 11:00 31.83842 -8.38739 9659 ft 271 kts 230°
2026-04-18 11:00 31.82364 -8.40067 9401 ft 268 kts 206°
2026-04-18 11:00 31.80667 -8.40971 9119 ft 267 kts 203°
2026-04-18 11:01 31.78960 -8.41823 8826 ft 266 kts 203°
2026-04-18 11:01 31.77258 -8.42672 8544 ft 264 kts 203°
2026-04-18 11:01 31.75586 -8.43520 8282 ft 264 kts 203°
2026-04-18 11:02 31.72234 -8.45236 7727 ft 261 kts 204°
2026-04-18 11:02 31.70572 -8.46089 7450 ft 260 kts 204°
2026-04-18 11:02 31.68912 -8.46929 7176 ft 259 kts 199°
2026-04-18 11:02 31.67142 -8.47167 6883 ft 257 kts 169°
2026-04-18 11:03 31.65541 -8.46307 6626 ft 255 kts 137°
2026-04-18 11:03 31.64631 -8.44590 6332 ft 254 kts 106°
2026-04-18 11:03 31.64252 -8.42565 6020 ft 255 kts 100°
2026-04-18 11:03 31.63993 -8.40505 5735 ft 255 kts 97°
2026-04-18 11:04 31.63792 -8.38448 5465 ft 253 kts 96°
2026-04-18 11:04 31.63608 -8.36402 5249 ft 250 kts 96°
2026-04-18 11:04 31.63430 -8.34404 5160 ft 240 kts 96°
2026-04-18 11:04 31.63261 -8.32510 5032 ft 227 kts 96°
2026-04-18 11:05 31.63098 -8.30709 4919 ft 216 kts 96°
2026-04-18 11:05 31.62946 -8.29015 4834 ft 202 kts 96°
2026-04-18 11:05 31.62801 -8.27407 4746 ft 197 kts 96°
2026-04-18 11:05 31.62657 -8.25807 4657 ft 198 kts 96°
2026-04-18 11:06 31.62514 -8.24204 4437 ft 194 kts 96°
2026-04-18 11:06 31.62378 -8.22675 4244 ft 187 kts 96°
2026-04-18 11:06 31.62243 -8.21193 4170 ft 181 kts 96°
2026-04-18 11:06 31.62114 -8.19743 3959 ft 172 kts 96°
2026-04-18 11:07 31.61993 -8.18383 3716 ft 164 kts 96°
2026-04-18 11:07 31.61877 -8.17065 3486 ft 162 kts 96°
2026-04-18 11:07 31.61761 -8.15750 3274 ft 163 kts 96°
2026-04-18 11:07 31.61641 -8.14420 3061 ft 163 kts 96°
2026-04-18 11:08 31.61524 -8.13098 2847 ft 163 kts 96°
2026-04-18 11:08 31.61407 -8.11793 2626 ft 158 kts 96°
2026-04-18 11:08 31.61298 -8.10534 2435 ft 154 kts 96°
2026-04-18 11:08 31.61190 -8.09269 2224 ft 157 kts 95°
2026-04-18 11:09 31.61075 -8.07980 2009 ft 159 kts 96°
2026-04-18 11:09 31.60961 -8.06687 1803 ft 161 kts 96°
2026-04-18 11:09 31.60843 -8.05365 1612 ft 164 kts 96°
2026-04-18 11:09 31.60727 -8.04081 1539 ft 147 kts 96°
2026-04-18 11:10 31.60639 -8.03058 1542 ft 104 kts 96°
2026-04-18 11:10 31.60581 -8.02402 1548 ft 62 kts 97°
2026-04-18 11:10 31.60552 -8.02175 1542 ft 11 kts 131°
2026-04-18 11:10 31.60484 -8.02160 1540 ft 10 kts 187°
2026-04-18 11:11 31.60429 -8.02168 1548 ft 6 kts 187°
2026-04-18 11:11 31.60409 -8.02171 1548 ft 0 kts 189°
2026-04-18 11:11 31.60384 -8.02184 1548 ft 9 kts 211°
2026-04-18 11:11 31.60308 -8.02201 1548 ft 12 kts 185°
2026-04-18 11:12 31.60227 -8.02209 1546 ft 11 kts 184°
2026-04-18 11:12 31.60157 -8.02214 1541 ft 9 kts 185°
2026-04-18 11:12 31.60115 -8.02221 1546 ft 3 kts 189°
2026-04-18 11:12 31.60112 -8.02221 1548 ft 0 kts 188°
2026-04-18 11:13 31.60102 -8.02221 1548 ft 2 kts 175°
2026-04-18 11:13 31.60094 -8.02215 1548 ft 1 kts 129°
2026-04-18 11:13 31.60093 -8.02208 1546 ft 1 kts 100°
2026-04-18 11:13 31.60089 -8.02188 1548 ft 4 kts 99°
2026-04-18 11:14 31.60087 -8.02148 1548 ft 5 kts 95°
2026-04-18 11:14 31.60086 -8.02142 1548 ft 0 kts 95°